TimeCST,TemperatureF,Dew PointF,Humidity,Sea Level PressureIn,VisibilityMPH,Wind Direction,Wind SpeedMPH,Gust SpeedMPH,PrecipitationIn,Events,Conditions,WindDirDegrees,DateUTC
12:56 AM,37.0,24.1,59,30.02,10.0,Calm,Calm,-,N/A,,Overcast,0,2012-12-07 06:56:00
1:56 AM,35.1,25.0,67,30.00,10.0,Calm,Calm,-,N/A,,Overcast,0,2012-12-07 07:56:00
2:56 AM,33.1,24.1,70,30.00,10.0,Calm,Calm,-,N/A,,Overcast,0,2012-12-07 08:56:00
3:56 AM,33.1,23.0,66,29.99,10.0,Calm,Calm,-,N/A,,Overcast,0,2012-12-07 09:56:00
4:56 AM,26.1,19.9,78,29.96,10.0,ESE,4.6,-,N/A,,Clear,110,2012-12-07 10:56:00
5:56 AM,28.9,23.0,78,29.98,10.0,WNW,4.6,-,N/A,,Overcast,300,2012-12-07 11:56:00
6:56 AM,30.0,23.0,75,29.97,10.0,ENE,3.5,-,N/A,,Mostly Cloudy,60,2012-12-07 12:56:00
7:56 AM,28.0,23.0,81,29.96,10.0,SE,6.9,-,N/A,,Scattered Clouds,130,2012-12-07 13:56:00
8:56 AM,32.0,25.0,75,29.96,10.0,ESE,4.6,-,N/A,,Scattered Clouds,110,2012-12-07 14:56:00
9:56 AM,33.1,25.0,72,29.99,10.0,NE,4.6,-,N/A,,Overcast,40,2012-12-07 15:56:00
10:56 AM,34.0,25.0,70,29.99,10.0,ENE,4.6,-,N/A,,Overcast,60,2012-12-07 16:56:00
11:56 AM,35.1,26.1,70,29.99,5.0,NE,3.5,-,0.00,Snow,Light Snow,50,2012-12-07 17:56:00
12:06 PM,33.8,26.6,75,29.94,2.5,ENE,4.6,-,0.00,Snow,Light Snow,70,2012-12-07 18:06:00
12:15 PM,33.8,28.4,81,29.93,1.5,ENE,4.6,-,0.00,Snow,Light Snow,70,2012-12-07 18:15:00
12:21 PM,33.8,28.4,81,29.93,3.0,East,4.6,-,0.00,Snow,Light Snow,80,2012-12-07 18:21:00
12:34 PM,33.8,28.4,81,29.92,1.8,East,5.8,-,0.00,Snow,Light Snow,80,2012-12-07 18:34:00
12:43 PM,32.0,28.4,87,29.90,0.5,East,8.1,-,0.02,Fog-Snow,Snow,90,2012-12-07 18:43:00
12:49 PM,30.2,28.4,93,29.90,0.2,ESE,8.1,-,0.03,Fog-Snow,Snow,110,2012-12-07 18:49:00
12:56 PM,30.9,28.9,92,29.93,0.5,ESE,9.2,-,0.04,Fog-Snow,Snow,110,2012-12-07 18:56:00
1:07 PM,32.0,28.4,87,29.89,1.8,ESE,10.4,-,0.00,Snow,Light Snow,110,2012-12-07 19:07:00
1:12 PM,32.0,28.4,87,29.88,2.5,ESE,11.5,-,0.00,Snow,Light Snow,110,2012-12-07 19:12:00
1:21 PM,32.0,28.4,87,29.88,4.0,ESE,12.7,-,0.00,,Scattered Clouds,110,2012-12-07 19:21:00
1:30 PM,32.0,28.4,87,29.87,6.0,ESE,9.2,-,0.00,,Scattered Clouds,110,2012-12-07 19:30:00
1:56 PM,32.0,28.9,88,29.90,8.0,ESE,11.5,-,0.00,,Mostly Cloudy,120,2012-12-07 19:56:00
2:16 PM,33.8,30.2,87,29.85,9.0,ESE,11.5,-,N/A,,Mostly Cloudy,110,2012-12-07 20:16:00
2:51 PM,33.8,30.2,87,29.86,10.0,East,8.1,-,N/A,,Mostly Cloudy,90,2012-12-07 20:51:00
2:56 PM,34.0,30.0,85,29.90,10.0,East,8.1,-,N/A,,Mostly Cloudy,100,2012-12-07 20:56:00
3:24 PM,33.8,30.2,87,29.86,9.0,East,8.1,-,N/A,,Scattered Clouds,80,2012-12-07 21:24:00
3:48 PM,33.8,30.2,87,29.88,10.0,NE,4.6,-,N/A,,Mostly Cloudy,50,2012-12-07 21:48:00
3:56 PM,33.1,28.9,85,29.93,10.0,ENE,5.8,-,N/A,,Overcast,60,2012-12-07 21:56:00
4:07 PM,33.8,28.4,81,29.89,10.0,NE,4.6,-,N/A,,Overcast,40,2012-12-07 22:07:00
4:56 PM,32.0,28.0,85,29.95,6.0,East,6.9,-,N/A,,Overcast,80,2012-12-07 22:56:00
5:56 PM,30.0,28.0,92,29.95,6.0,East,4.6,-,N/A,,Clear,100,2012-12-07 23:56:00
6:56 PM,28.9,27.0,92,29.98,5.0,NE,5.8,-,N/A,,Clear,40,2012-12-08 00:56:00
7:03 PM,30.2,26.6,86,29.93,5.0,NE,5.8,-,N/A,,Scattered Clouds,40,2012-12-08 01:03:00
7:14 PM,30.2,26.6,86,29.93,5.0,NNE,8.1,-,N/A,,Mostly Cloudy,20,2012-12-08 01:14:00
7:56 PM,30.0,28.0,92,30.00,6.0,NNE,5.8,-,N/A,,Overcast,30,2012-12-08 01:56:00
8:56 PM,30.9,28.0,89,30.00,6.0,Calm,Calm,-,N/A,,Overcast,0,2012-12-08 02:56:00
9:07 PM,30.2,28.4,93,29.96,6.0,NW,4.6,-,N/A,,Overcast,320,2012-12-08 03:07:00
9:47 PM,30.2,28.4,93,29.97,3.0,NNW,9.2,-,N/A,,Overcast,340,2012-12-08 03:47:00
9:56 PM,30.9,28.0,89,30.01,3.0,North,9.2,-,N/A,,Overcast,360,2012-12-08 03:56:00
10:33 PM,30.2,28.4,93,29.98,3.0,NW,4.6,-,N/A,,Overcast,320,2012-12-08 04:33:00
10:56 PM,30.9,28.0,89,30.03,3.0,NNW,5.8,-,N/A,,Overcast,330,2012-12-08 04:56:00
11:56 PM,30.0,28.0,92,30.04,6.0,NNW,6.9,-,N/A,,Overcast,340,2012-12-08 05:56:00